This demonstration page uses our WeatherBlox Daily Observations layout. Learn more.

Left ArrowRight Arrow

Hourly Observations for March 8, 2018

Temp ( °F °C ) Dew Point ( °F °C ) Humidity (%) Winds ( mph kmh ) Pressure ( in mb ) Visibility ( mi km ) Precip ( " mm )
12:15 am 00:15 Clear 36 2 27 -3 70 70 NW 17 28 29.91 1013 10 16 N/A
12:35 am 00:35 Clear 36 2 27 -3 70 70 WNW 13 20 29.91 1013 10 16 N/A
12:55 am 00:55 Clear 36 2 27 -3 70 70 WNW 10 17 29.91 1013 10 16 N/A
1:15 am 01:15 Clear 34 1 25 -4 70 70 NW 12 19 29.91 1013 10 16 N/A
1:35 am 01:35 Clear 36 2 25 -4 65 65 WNW 9 15 29.91 1013 10 16 N/A
1:55 am 01:55 Clear 36 2 25 -4 65 65 W 5 7 29.91 1013 10 16 N/A
2:15 am 02:15 Clear 34 1 25 -4 70 70 W 6 9 29.91 1013 10 16 N/A
2:35 am 02:35 Clear 32 undefined 25 -4 75 75 W 7 11 29.88 1012 10 16 N/A
2:55 am 02:55 Clear 32 undefined 25 -4 75 75 W 7 11 29.91 1013 10 16 N/A
3:15 am 03:15 Clear 32 undefined 25 -4 75 75 WNW 12 19 29.88 1012 10 16 N/A
3:35 am 03:35 Clear 34 1 23 -5 65 65 WNW 14 22 29.88 1012 10 16 N/A
3:55 am 03:55 Clear 34 1 21 -6 60 60 WNW 10 17 29.88 1012 10 16 N/A
4:15 am 04:15 Clear 34 1 21 -6 60 60 WNW 20 31 29.88 1012 10 16 N/A
4:35 am 04:35 Clear 34 1 21 -6 60 60 WNW 16 26 29.88 1012 10 16 N/A
4:55 am 04:55 Clear 32 undefined 21 -6 64 64 WNW 17 28 29.88 1012 10 16 N/A
5:15 am 05:15 Clear 32 undefined 21 -6 64 64 WNW 10 17 29.91 1013 10 16 N/A
5:35 am 05:35 Clear 32 undefined 21 -6 64 64 WNW 16 26 29.91 1013 10 16 N/A
5:55 am 05:55 Clear 32 undefined 21 -6 64 64 WNW 16 26 29.91 1013 10 16 N/A
6:15 am 06:15 Clear 32 undefined 19 -7 60 60 WNW 9 15 29.91 1013 10 16 N/A
6:35 am 06:35 Sunny 32 undefined 19 -7 60 60 WNW 15 24 29.91 1013 10 16 N/A
6:55 am 06:55 Sunny 32 undefined 19 -7 60 60 NW 14 22 29.91 1013 10 16 N/A
7:15 am 07:15 Sunny 32 undefined 19 -7 60 60 WNW 9 15 29.91 1013 10 16 N/A
7:35 am 07:35 Sunny 34 1 19 -7 56 56 WNW 9 15 29.91 1013 10 16 N/A
7:55 am 07:55 Sunny 34 1 19 -7 56 56 NW 13 20 29.91 1013 10 16 N/A
8:15 am 08:15 Sunny 36 2 19 -7 52 52 WNW 15 24 29.94 1014 10 16 N/A
8:35 am 08:35 Sunny 36 2 19 -7 52 52 WNW 16 26 29.91 1013 10 16 N/A
8:55 am 08:55 Sunny 36 2 19 -7 52 52 WNW 20 31 29.91 1013 10 16 N/A
9:15 am 09:15 Sunny 37 3 19 -7 48 48 WNW 20 31 29.91 1013 10 16 N/A
9:35 am 09:35 Sunny 37 3 19 -7 48 48 NW 16 26 29.91 1013 10 16 N/A
9:55 am 09:55 Sunny 37 3 19 -7 48 48 NNW 20 31 29.91 1013 10 16 N/A
10:15 am 10:15 Partly Cloudy 39 4 21 -6 48 48 WNW 14 22 29.91 1013 10 16 N/A
10:35 am 10:35 Mostly Cloudy 41 5 19 -7 42 42 NW 16 26 29.91 1013 10 16 N/A
10:55 am 10:55 Cloudy 39 4 19 -7 45 45 NW 16 26 29.88 1012 10 16 N/A
11:15 am 11:15 Cloudy 41 5 19 -7 42 42 WNW 20 31 29.88 1012 10 16 N/A
11:35 am 11:35 Cloudy 41 5 21 -6 45 45 W 16 26 29.88 1012 10 16 N/A
11:55 am 11:55 Mostly Cloudy 41 5 19 -7 42 42 NW 9 15 29.85 1011 10 16 N/A
12:15 pm 12:15 Mostly Cloudy 41 5 19 -7 42 42 W 18 30 29.85 1011 10 16 N/A
12:35 pm 12:35 Cloudy 41 5 19 -7 42 42 NW 20 31 29.85 1011 10 16 N/A
12:55 pm 12:55 Cloudy 41 5 19 -7 42 42 NW 12 19 29.85 1011 10 16 N/A
1:15 pm 13:15 Cloudy 41 5 19 -7 42 42 NW 10 17 29.83 1010 10 16 N/A
1:35 pm 13:35 Mostly Cloudy 43 6 19 -7 39 39 NW 13 20 29.83 1010 10 16 N/A
1:55 pm 13:55 Mostly Cloudy 41 5 19 -7 42 42 NW 15 24 29.83 1010 10 16 N/A
2:15 pm 14:15 Cloudy 43 6 21 -6 42 42 W 13 20 29.83 1010 10 16 N/A
2:35 pm 14:35 Mostly Cloudy 43 6 19 -7 39 39 WNW 10 17 29.83 1010 10 16 N/A
2:55 pm 14:55 Mostly Cloudy 43 6 19 -7 39 39 W 10 17 29.80 1009 10 16 N/A
3:15 pm 15:15 Mostly Cloudy 45 7 21 -6 39 39 W 13 20 29.80 1009 10 16 N/A
3:35 pm 15:35 Cloudy 43 6 19 -7 39 39 WSW 13 20 29.83 1010 10 16 N/A
3:55 pm 15:55 Cloudy 41 5 21 -6 45 45 NW 13 20 29.83 1010 10 16 N/A
4:15 pm 16:15 Windy with Snow Likely 37 3 28 -2 70 70 WNW 20 31 29.83 1010 5 8 N/A
4:35 pm 16:35 Mostly Cloudy with Light Snow 36 2 32 undefined 87 87 WNW 17 28 29.85 1011 10 16 N/A
4:55 pm 16:55 Partly Cloudy 36 2 28 -2 75 75 NNW 10 17 29.85 1011 10 16 N/A
5:15 pm 17:15 Partly Cloudy 36 2 27 -3 70 70 WNW 17 28 29.85 1011 10 16 N/A
5:35 pm 17:35 Partly Cloudy 36 2 27 -3 70 70 NW 29 46 29.85 1011 10 16 N/A
5:55 pm 17:55 Partly Cloudy 34 1 28 -2 81 81 NW 16 26 29.85 1011 10 16 N/A
6:15 pm 18:15 Partly Cloudy 34 1 27 -3 75 75 WNW 13 20 29.85 1011 10 16 N/A
6:35 pm 18:35 Partly Cloudy 34 1 27 -3 75 75 NW 13 20 29.85 1011 10 16 N/A
6:55 pm 18:55 Clear 32 undefined 27 -3 80 80 WNW 13 20 29.88 1012 10 16 N/A
7:15 pm 19:15 Clear 34 1 27 -3 75 75 WNW 13 20 29.88 1012 10 16 N/A
7:35 pm 19:35 Mostly Cloudy 34 1 25 -4 70 70 WNW 12 19 29.88 1012 10 16 N/A
7:55 pm 19:55 Mostly Cloudy 34 1 25 -4 70 70 WNW 13 20 29.88 1012 10 16 N/A
8:15 pm 20:15 Partly Cloudy 34 1 23 -5 65 65 WNW 10 17 29.91 1013 10 16 N/A
8:35 pm 20:35 Partly Cloudy 34 1 23 -5 65 65 WNW 13 20 29.91 1013 10 16 N/A
8:55 pm 20:55 Partly Cloudy 32 undefined 23 -5 69 69 WNW 13 20 29.91 1013 10 16 N/A
9:15 pm 21:15 Clear 32 undefined 23 -5 69 69 W 10 17 29.91 1013 10 16 N/A
9:35 pm 21:35 Mostly Cloudy 32 undefined 23 -5 69 69 WNW 14 22 29.91 1013 10 16 N/A
9:55 pm 21:55 Mostly Cloudy 32 undefined 23 -5 69 69 WNW 16 26 29.91 1013 10 16 N/A
10:15 pm 22:15 Partly Cloudy 32 undefined 23 -5 69 69 WNW 14 22 29.91 1013 10 16 N/A
10:35 pm 22:35 Mostly Cloudy 32 undefined 23 -5 69 69 WNW 12 19 29.91 1013 10 16 N/A
10:55 pm 22:55 Cloudy 32 undefined 23 -5 69 69 WNW 7 11 29.91 1013 10 16 N/A
11:15 pm 23:15 Cloudy 34 1 23 -5 65 65 WNW 16 26 29.91 1013 10 16 N/A
11:35 pm 23:35 Cloudy 34 1 23 -5 65 65 WNW 16 26 29.91 1013 10 16 N/A
11:55 pm 23:55 Cloudy 32 undefined 23 -5 69 69 WNW 13 20 29.91 1013 10 16 N/A

Powered by AerisWeather